| time (UTC) | temp F | wind direction | speed knots | gust knots | rain 1hr in | rain 24hr in | rain mn in | humidity % | barometer mb |
| 20260502223033 | 70 | 28 | 4.3 | 6.1 | 0.00 | 0.00 | 0.00 | 51 | 1013.3 |
| 20260502222530 | 70 | 336 | 4.3 | 6.1 | 0.00 | 0.00 | 0.00 | 51 | 1013.3 |
| 20260502222029 | 70 | 359 | 4.3 | 7.8 | 0.00 | 0.00 | 0.00 | 51 | 1013.4 |
| 20260502221533 | 70 | 338 | 4.3 | 7.8 | 0.00 | 0.00 | 0.00 | 52 | 1013.4 |
| 20260502221029 | 70 | 13 | 4.3 | 6.1 | 0.00 | 0.00 | 0.00 | 54 | 1013.4 |
| 20260502220755 | 69 | 359 | 4.3 | 7.0 | 0.00 | 0.00 | 0.00 | 54 | 1013.7 |
| 20260502220255 | 69 | 349 | 5.2 | 7.8 | 0.00 | 0.00 | 0.00 | 54 | 1013.7 |
| 20260502215513 | 69 | 332 | 5.2 | 7.8 | 0.00 | 0.00 | 0.00 | 56 | 1013.7 |
| 20260502215012 | 69 | 330 | 5.2 | 7.8 | 0.00 | 0.00 | 0.00 | 55 | 1013.9 |
| 20260502214510 | 69 | 359 | 3.5 | 7.8 | 0.00 | 0.00 | 0.00 | 52 | 1013.9 |
| 20260502214012 | 69 | 19 | 3.5 | 6.1 | 0.00 | 0.00 | 0.00 | 54 | 1013.9 |
| 20260502213511 | 68 | 359 | 3.5 | 6.1 | 0.00 | 0.00 | 0.00 | 54 | 1014.2 |
| 20260502213006 | 68 | 324 | 3.5 | 5.2 | 0.00 | 0.00 | 0.00 | 55 | 1014.2 |
| 20260502212507 | 68 | 336 | 3.5 | 5.2 | 0.00 | 0.00 | 0.00 | 55 | 1014.2 |
| 20260502212004 | 68 | 15 | 3.5 | 6.1 | 0.00 | 0.00 | 0.00 | 56 | 1014.4 |
| 20260502211504 | 68 | 335 | 3.5 | 6.1 | 0.00 | 0.00 | 0.00 | 55 | 1014.4 |
| 20260502211004 | 67 | 52 | 3.5 | 6.1 | 0.00 | 0.00 | 0.00 | 55 | 1014.4 |
| 20260502210504 | 67 | 34 | 3.5 | 6.1 | 0.00 | 0.00 | 0.00 | 56 | 1014.4 |
| 20260502210001 | 67 | 354 | 3.5 | 6.1 | 0.00 | 0.00 | 0.00 | 56 | 1014.4 |
| 20260502205505 | 67 | 330 | 3.5 | 5.2 | 0.00 | 0.00 | 0.00 | 58 | 1014.4 |
| 20260502205247 | 66 | 321 | 2.6 | 4.3 | 0.00 | 0.00 | 0.00 | 59 | 1014.5 |
| 20260502204505 | 66 | 322 | 3.5 | 5.2 | 0.00 | 0.00 | 0.00 | 57 | 1014.5 |
| 20260502204256 | 66 | 359 | 3.5 | 5.2 | 0.00 | 0.00 | 0.00 | 59 | 1014.5 |
| 20260502203500 | 65 | 322 | 4.3 | 6.1 | 0.00 | 0.00 | 0.00 | 58 | 1014.7 |
| 20260502202959 | 65 | 351 | 4.3 | 8.7 | 0.00 | 0.00 | 0.00 | 59 | 1014.7 |
| 20260502202453 | 65 | 342 | 3.5 | 8.7 | 0.00 | 0.00 | 0.00 | 58 | 1014.7 |
| 20260502201945 | 65 | 335 | 3.5 | 7.0 | 0.00 | 0.00 | 0.00 | 60 | 1014.9 |
| 20260502201444 | 65 | 34 | 5.2 | 7.8 | 0.00 | 0.00 | 0.00 | 59 | 1014.9 |
| 20260502200940 | 65 | 333 | 4.3 | 7.8 | 0.00 | 0.00 | 0.00 | 59 | 1014.9 |
| 20260502200442 | 65 | 14 | 3.5 | 7.0 | 0.00 | 0.00 | 0.00 | 61 | 1015.0 |
| 20260502195940 | 64 | 17 | 3.5 | 7.8 | 0.00 | 0.00 | 0.00 | 60 | 1015.0 |
| 20260502195436 | 64 | 9 | 2.6 | 7.8 | 0.00 | 0.00 | 0.00 | 61 | 1015.0 |
| 20260502194938 | 63 | 359 | 3.5 | 5.2 | 0.00 | 0.00 | 0.00 | 62 | 1015.1 |
| 20260502194437 | 63 | 9 | 4.3 | 9.6 | 0.00 | 0.00 | 0.00 | 62 | 1015.1 |
| 20260502193934 | 63 | 350 | 5.2 | 9.6 | 0.00 | 0.00 | 0.00 | 62 | 1015.1 |
| 20260502193437 | 63 | 21 | 4.3 | 8.7 | 0.00 | 0.00 | 0.00 | 63 | 1015.3 |
| 20260502192933 | 62 | 324 | 4.3 | 8.7 | 0.00 | 0.00 | 0.00 | 64 | 1015.3 |
| 20260502192430 | 61 | 61 | 5.2 | 8.7 | 0.00 | 0.00 | 0.00 | 67 | 1015.3 |
| 20260502191931 | 61 | 33 | 6.1 | 10.4 | 0.00 | 0.00 | 0.00 | 66 | 1015.5 |
| 20260502191429 | 61 | 359 | 5.2 | 10.4 | 0.00 | 0.00 | 0.00 | 67 | 1015.5 |
| 20260502190932 | 61 | 4 | 5.2 | 9.6 | 0.00 | 0.00 | 0.00 | 67 | 1015.5 |
| 20260502190429 | 60 | 345 | 4.3 | 8.7 | 0.00 | 0.00 | 0.00 | 67 | 1015.7 |
| 20260502190218 | 60 | 9 | 3.5 | 6.1 | 0.00 | 0.00 | 0.00 | 68 | 1015.7 |
| 20260502185713 | 60 | 339 | 3.5 | 6.1 | 0.00 | 0.00 | 0.00 | 70 | 1015.7 |
| 20260502185209 | 59 | 9 | 3.5 | 5.2 | 0.00 | 0.00 | 0.00 | 70 | 1015.9 |
| 20260502184651 | 59 | 325 | 2.6 | 4.3 | 0.00 | 0.00 | 0.00 | 70 | 1015.9 |
| 20260502183903 | 58 | 41 | 3.5 | 5.2 | 0.00 | 0.00 | 0.00 | 70 | 1015.9 |
| 20260502183359 | 58 | 337 | 3.5 | 6.1 | 0.00 | 0.00 | 0.00 | 71 | 1016.0 |
| 20260502182848 | 58 | 13 | 2.6 | 6.1 | 0.00 | 0.00 | 0.00 | 73 | 1016.0 |
| 20260502182346 | 57 | 9 | 2.6 | 4.3 | 0.00 | 0.00 | 0.00 | 74 | 1016.0 |
| 20260502181841 | 57 | 315 | 2.6 | 4.3 | 0.00 | 0.00 | 0.00 | 74 | 1016.1 |
| 20260502181340 | 56 | 359 | 3.5 | 4.3 | 0.00 | 0.00 | 0.00 | 76 | 1016.1 |
| 20260502180840 | 56 | 28 | 3.5 | 5.2 | 0.00 | 0.00 | 0.00 | 77 | 1016.1 |
| 20260502180340 | 55 | 344 | 4.3 | 5.2 | 0.00 | 0.00 | 0.00 | 77 | 1016.3 |
| 20260502170330 | 52 | 359 | 3.5 | 5.2 | 0.00 | 0.00 | 0.00 | 84 | 1016.5 |
| 20260502170112 | 52 | 354 | 3.5 | 6.1 | 0.00 | 0.00 | 0.00 | 84 | 1016.5 |
| 20260502164328 | 52 | 335 | 3.5 | 5.2 | 0.00 | 0.00 | 0.00 | 85 | 1016.5 |
| 20260502163821 | 51 | 348 | 3.5 | 5.2 | 0.00 | 0.00 | 0.00 | 85 | 1016.5 |
| 20260502163311 | 51 | 335 | 3.5 | 5.2 | 0.00 | 0.00 | 0.00 | 86 | 1016.5 |
| 20260502162802 | 51 | 338 | 3.5 | 4.3 | 0.00 | 0.00 | 0.00 | 86 | 1016.5 |
| 20260502162304 | 51 | 359 | 3.5 | 4.3 | 0.00 | 0.00 | 0.00 | 86 | 1016.5 |
| 20260502161756 | 51 | 4 | 3.5 | 6.1 | 0.00 | 0.00 | 0.00 | 86 | 1016.5 |
| 20260502161256 | 51 | 359 | 3.5 | 6.1 | 0.00 | 0.00 | 0.00 | 87 | 1016.5 |
| 20260502161034 | 51 | 359 | 3.5 | 6.1 | 0.00 | 0.00 | 0.00 | 87 | 1016.5 |
| 20260502160247 | 50 | 9 | 4.3 | 6.1 | 0.00 | 0.00 | 0.00 | 88 | 1016.5 |
| 20260502152247 | 50 | 337 | 1.7 | 3.5 | 0.00 | 0.00 | 0.00 | 87 | 1016.5 |
| 20260502152031 | 50 | 9 | 0.9 | 3.5 | 0.00 | 0.00 | 0.00 | 87 | 1016.5 |
| 20260502151245 | 50 | 60 | 1.7 | 5.2 | 0.00 | 0.00 | 0.00 | 87 | 1016.5 |
| 20260502150745 | 50 | 59 | 2.6 | 5.2 | 0.00 | 0.00 | 0.00 | 87 | 1016.5 |
| 20260502150233 | 50 | 19 | 1.7 | 4.3 | 0.00 | 0.00 | 0.00 | 87 | 1016.5 |
| 20260502130615 | 50 | 18 | 1.7 | 3.5 | 0.00 | 0.00 | 0.00 | 87 | 1016.0 |
| 20260502130115 | 50 | 17 | 1.7 | 3.5 | 0.00 | 0.00 | 0.00 | 87 | 1016.0 |
| 20260502123602 | 50 | 30 | 1.7 | 2.6 | 0.00 | 0.00 | 0.00 | 87 | 1016.1 |
| 20260502123100 | 50 | 9 | 0.9 | 2.6 | 0.00 | 0.00 | 0.00 | 87 | 1016.2 |
| 20260502122601 | 50 | 25 | 0.9 | 2.6 | 0.00 | 0.00 | 0.00 | 87 | 1016.2 |
| 20260502122101 | 50 | 14 | 1.7 | 2.6 | 0.00 | 0.00 | 0.00 | 87 | 1016.2 |
| 20260502121601 | 50 | 359 | 0.9 | 2.6 | 0.00 | 0.00 | 0.00 | 87 | 1016.4 |
| 20260502121105 | 50 | 328 | 0.9 | 1.7 | 0.00 | 0.00 | 0.00 | 86 | 1016.4 |
| 20260502120834 | 50 | 323 | 0.9 | 2.6 | 0.00 | 0.00 | 0.00 | 86 | 1016.4 |
| 20260502115601 | 50 | 242 | 0.0 | 1.7 | 0.00 | 0.00 | 0.00 | 86 | 1016.5 |
| 20260502115106 | 50 | 242 | 0.9 | 1.7 | 0.00 | 0.00 | 0.00 | 86 | 1016.5 |
| 20260502114606 | 50 | 242 | 0.9 | 2.6 | 0.00 | 0.00 | 0.00 | 86 | 1016.5 |
| 20260502114104 | 50 | 265 | 1.7 | 2.6 | 0.00 | 0.00 | 0.00 | 86 | 1016.5 |
| 20260502113601 | 50 | 258 | 1.7 | 2.6 | 0.00 | 0.00 | 0.00 | 85 | 1016.5 |
| 20260502113102 | 50 | 249 | 1.7 | 2.6 | 0.00 | 0.00 | 0.00 | 85 | 1016.3 |
| 20260502112835 | 50 | 258 | 0.9 | 2.6 | 0.00 | 0.00 | 0.00 | 85 | 1016.3 |
| 20260502112059 | 50 | 161 | 0.9 | 2.6 | 0.00 | 0.00 | 0.00 | 85 | 1016.0 |
| 20260502111555 | 50 | 234 | 1.7 | 2.6 | 0.00 | 0.00 | 0.00 | 85 | 1016.0 |
| 20260502111055 | 50 | 306 | 1.7 | 3.5 | 0.00 | 0.00 | 0.00 | 85 | 1016.0 |
| 20260502110547 | 50 | 324 | 2.6 | 3.5 | 0.00 | 0.00 | 0.00 | 85 | 1016.1 |
| 20260502110045 | 50 | 312 | 1.7 | 2.6 | 0.00 | 0.00 | 0.00 | 85 | 1016.1 |
| 20260502105543 | 51 | 294 | 1.7 | 2.6 | 0.00 | 0.00 | 0.00 | 84 | 1016.1 |
| 20260502105045 | 51 | 306 | 1.7 | 3.5 | 0.00 | 0.00 | 0.00 | 84 | 1016.7 |
| 20260502104825 | 51 | 269 | 1.7 | 3.5 | 0.00 | 0.00 | 0.00 | 84 | 1016.7 |
| 20260502104032 | 51 | 223 | 1.7 | 3.5 | 0.00 | 0.00 | 0.00 | 83 | 1016.7 |
| 20260502103818 | 51 | 181 | 2.6 | 4.3 | 0.00 | 0.00 | 0.00 | 83 | 1017.0 |
| 20260502103032 | 51 | 198 | 3.5 | 7.0 | 0.00 | 0.00 | 0.00 | 83 | 1017.0 |
| 20260502102530 | 51 | 166 | 3.5 | 7.0 | 0.00 | 0.00 | 0.00 | 83 | 1017.0 |
| 20260502102035 | 51 | 157 | 3.5 | 5.2 | 0.00 | 0.00 | 0.00 | 83 | 1017.0 |
| 20260502101533 | 51 | 211 | 3.5 | 5.2 | 0.00 | 0.00 | 0.00 | 83 | 1017.0 |
| 20260502101029 | 51 | 178 | 3.5 | 5.2 | 0.00 | 0.00 | 0.00 | 84 | 1017.0 |
| 20260502100529 | 51 | 161 | 1.7 | 5.2 | 0.00 | 0.00 | 0.00 | 84 | 1016.5 |
| 20260502091450 | 51 | 55 | 0.9 | 2.6 | 0.00 | 0.00 | 0.00 | 83 | 1016.2 |
| 20260502090951 | 51 | 55 | 1.7 | 2.6 | 0.00 | 0.00 | 0.00 | 83 | 1016.2 |
| 20260502090449 | 51 | 16 | 1.7 | 2.6 | 0.00 | 0.00 | 0.00 | 83 | 1016.4 |
| 20260502071335 | 53 | 144 | 2.6 | 5.2 | 0.00 | 0.00 | 0.00 | 77 | 1016.1 |
| 20260502070833 | 53 | 170 | 2.6 | 4.3 | 0.00 | 0.00 | 0.00 | 77 | 1016.1 |
| 20260502070333 | 53 | 148 | 1.7 | 4.3 | 0.00 | 0.00 | 0.00 | 76 | 1016.1 |
| 20260502065833 | 53 | 159 | 1.7 | 4.3 | 0.00 | 0.00 | 0.00 | 76 | 1016.1 |
| 20260502065613 | 53 | 179 | 0.9 | 2.6 | 0.00 | 0.00 | 0.00 | 77 | 1016.1 |
| 20260502064831 | 54 | 317 | 0.9 | 2.6 | 0.00 | 0.00 | 0.00 | 78 | 1016.0 |
| 20260502064334 | 54 | 296 | 0.9 | 1.7 | 0.00 | 0.00 | 0.00 | 77 | 1016.0 |
| 20260502063830 | 54 | 225 | 0.9 | 2.6 | 0.00 | 0.00 | 0.00 | 75 | 1016.0 |
| 20260502063331 | 54 | 178 | 1.7 | 3.5 | 0.00 | 0.00 | 0.00 | 75 | 1016.0 |
| 20260502063105 | 54 | 158 | 1.7 | 3.5 | 0.00 | 0.00 | 0.00 | 75 | 1016.0 |
| 20260502062324 | 54 | 148 | 1.7 | 3.5 | 0.00 | 0.00 | 0.00 | 75 | 1016.0 |
| 20260502061820 | 54 | 165 | 2.6 | 4.3 | 0.00 | 0.00 | 0.00 | 74 | 1016.0 |
| 20260502061603 | 55 | 159 | 2.6 | 4.3 | 0.00 | 0.00 | 0.00 | 74 | 1016.0 |
| 20260502060820 | 55 | 182 | 1.7 | 4.3 | 0.00 | 0.00 | 0.00 | 75 | 1016.0 |
| 20260502060322 | 54 | 151 | 0.9 | 3.5 | 0.00 | 0.00 | 0.00 | 76 | 1016.0 |
| 20260502055817 | 54 | 241 | 0.9 | 2.6 | 0.00 | 0.00 | 0.00 | 76 | 1016.0 |
| 20260502055305 | 55 | 313 | 0.9 | 1.7 | 0.00 | 0.00 | 0.00 | 75 | 1016.0 |
| 20260502054806 | 55 | 318 | 0.9 | 1.7 | 0.00 | 0.00 | 0.00 | 75 | 1016.0 |
| 20260502054306 | 55 | 318 | 1.7 | 2.6 | 0.00 | 0.00 | 0.00 | 75 | 1016.0 |
| 20260502053801 | 55 | 309 | 1.7 | 3.5 | 0.00 | 0.00 | 0.00 | 74 | 1016.0 |
| 20260502053259 | 55 | 285 | 1.7 | 3.5 | 0.00 | 0.00 | 0.00 | 75 | 1016.0 |
| 20260502052747 | 55 | 346 | 1.7 | 3.5 | 0.00 | 0.00 | 0.00 | 74 | 1016.0 |
| 20260502052233 | 55 | 335 | 1.7 | 2.6 | 0.00 | 0.00 | 0.00 | 74 | 1016.0 |
| 20260502051732 | 55 | 32 | 1.7 | 3.5 | 0.00 | 0.00 | 0.00 | 75 | 1016.0 |
| 20260502051234 | 55 | 359 | 2.6 | 3.5 | 0.00 | 0.00 | 0.00 | 74 | 1016.0 |
| 20260502050733 | 56 | 9 | 1.7 | 2.6 | 0.00 | 0.00 | 0.00 | 74 | 1016.0 |
| 20260502050232 | 56 | 4 | 1.7 | 3.5 | 0.00 | 0.00 | 0.00 | 74 | 1016.0 |
| 20260502045729 | 56 | 346 | 2.6 | 5.2 | 0.00 | 0.00 | 0.00 | 73 | 1016.0 |
| 20260502045229 | 56 | 334 | 1.7 | 5.2 | 0.00 | 0.00 | 0.00 | 74 | 1016.0 |
| 20260502045018 | 56 | 323 | 1.7 | 4.3 | 0.00 | 0.00 | 0.00 | 74 | 1015.8 |
| 20260502044229 | 56 | 355 | 1.7 | 4.3 | 0.00 | 0.00 | 0.00 | 74 | 1015.8 |
| 20260502043733 | 56 | 13 | 2.6 | 5.2 | 0.00 | 0.00 | 0.00 | 74 | 1015.8 |
| 20260502043221 | 56 | 4 | 2.6 | 5.2 | 0.00 | 0.00 | 0.00 | 75 | 1015.5 |
| 20260502042734 | 57 | 29 | 3.5 | 8.7 | 0.00 | 0.00 | 0.00 | 75 | 1015.5 |
| 20260502041705 | 57 | 16 | 7.0 | 10.4 | 0.00 | 0.00 | 0.00 | 74 | 1015.4 |
| 20260502041206 | 57 | 359 | 7.0 | 11.3 | 0.00 | 0.00 | 0.00 | 74 | 1015.4 |
| 20260502040953 | 58 | 25 | 7.8 | 11.3 | 0.00 | 0.00 | 0.00 | 73 | 1015.4 |
| 20260502040451 | 58 | 32 | 7.0 | 10.4 | 0.00 | 0.00 | 0.00 | 72 | 1015.0 |
| 20260502035703 | 58 | 30 | 6.1 | 10.4 | 0.00 | 0.00 | 0.00 | 72 | 1015.0 |
| 20260502035201 | 58 | 26 | 7.0 | 11.3 | 0.00 | 0.00 | 0.00 | 71 | 1015.0 |
| 20260502034704 | 59 | 13 | 7.8 | 11.3 | 0.00 | 0.00 | 0.00 | 71 | 1014.8 |
| 20260502034159 | 59 | 20 | 8.7 | 11.3 | 0.00 | 0.00 | 0.00 | 70 | 1014.8 |
| 20260502033648 | 59 | 27 | 7.8 | 11.3 | 0.00 | 0.00 | 0.00 | 69 | 1014.8 |
| 20260502033132 | 60 | 26 | 7.0 | 11.3 | 0.00 | 0.00 | 0.00 | 69 | 1014.5 |
| 20260502032630 | 60 | 16 | 7.0 | 9.6 | 0.00 | 0.00 | 0.00 | 68 | 1014.5 |
| 20260502032130 | 60 | 359 | 7.0 | 9.6 | 0.00 | 0.00 | 0.00 | 67 | 1014.5 |
| 20260502031628 | 61 | 33 | 7.0 | 9.6 | 0.00 | 0.00 | 0.00 | 67 | 1014.4 |
| 20260502031131 | 61 | 18 | 5.2 | 9.6 | 0.00 | 0.00 | 0.00 | 64 | 1014.4 |
| 20260502030629 | 62 | 9 | 4.3 | 9.6 | 0.00 | 0.00 | 0.00 | 63 | 1014.4 |
| 20260502030128 | 62 | 35 | 3.5 | 7.0 | 0.00 | 0.00 | 0.00 | 64 | 1014.0 |
| 20260502025628 | 63 | 15 | 2.6 | 6.1 | 0.00 | 0.00 | 0.00 | 60 | 1014.0 |
| 20260502025131 | 64 | 335 | 3.5 | 6.1 | 0.00 | 0.00 | 0.00 | 59 | 1014.0 |
| 20260502024636 | 64 | 326 | 4.3 | 6.1 | 0.00 | 0.00 | 0.00 | 55 | 1013.9 |
| 20260502024119 | 64 | 334 | 4.3 | 8.7 | 0.00 | 0.00 | 0.00 | 54 | 1013.9 |
| 20260502023610 | 64 | 339 | 4.3 | 10.4 | 0.00 | 0.00 | 0.00 | 55 | 1013.9 |
| 20260502023106 | 64 | 354 | 4.3 | 10.4 | 0.00 | 0.00 | 0.00 | 54 | 1013.7 |
| 20260502022604 | 65 | 353 | 4.3 | 9.6 | 0.00 | 0.00 | 0.00 | 53 | 1013.7 |
| 20260502022105 | 65 | 340 | 4.3 | 9.6 | 0.00 | 0.00 | 0.00 | 53 | 1013.7 |
| 20260502021606 | 65 | 348 | 4.3 | 9.6 | 0.00 | 0.00 | 0.00 | 53 | 1013.4 |
| 20260502021102 | 65 | 337 | 4.3 | 8.7 | 0.00 | 0.00 | 0.00 | 53 | 1013.4 |
| 20260502020852 | 65 | 352 | 5.2 | 9.6 | 0.00 | 0.00 | 0.00 | 53 | 1013.4 |
| 20260502020355 | 66 | 348 | 6.1 | 12.2 | 0.00 | 0.00 | 0.00 | 53 | 1013.4 |
| 20260502015849 | 66 | 319 | 7.8 | 13.9 | 0.00 | 0.00 | 0.00 | 53 | 1013.4 |
| 20260502015109 | 66 | 288 | 7.8 | 13.9 | 0.00 | 0.00 | 0.00 | 53 | 1013.4 |
| 20260502014608 | 66 | 298 | 7.0 | 12.2 | 0.00 | 0.00 | 0.00 | 53 | 1013.3 |
| 20260502014107 | 67 | 333 | 8.7 | 13.9 | 0.00 | 0.00 | 0.00 | 52 | 1013.3 |
| 20260502013555 | 67 | 316 | 9.6 | 13.9 | 0.00 | 0.00 | 0.00 | 51 | 1013.3 |
| 20260502013051 | 67 | 306 | 9.6 | 15.6 | 0.00 | 0.00 | 0.00 | 51 | 1013.3 |
| 20260502012549 | 67 | 290 | 10.4 | 15.6 | 0.00 | 0.00 | 0.00 | 50 | 1013.3 |
| 20260502012036 | 67 | 302 | 10.4 | 15.6 | 0.00 | 0.00 | 0.00 | 50 | 1013.4 |
| 20260502011534 | 68 | 292 | 11.3 | 15.6 | 0.00 | 0.00 | 0.00 | 50 | 1013.4 |
| 20260502011312 | 68 | 294 | 10.4 | 14.8 | 0.00 | 0.00 | 0.00 | 50 | 1013.4 |
| 20260502010522 | 69 | 308 | 9.6 | 16.5 | 0.00 | 0.00 | 0.00 | 49 | 1013.4 |
| 20260502010011 | 69 | 308 | 7.8 | 16.5 | 0.00 | 0.00 | 0.00 | 49 | 1013.4 |
| 20260502005508 | 70 | 305 | 7.8 | 12.2 | 0.00 | 0.00 | 0.00 | 50 | 1013.4 |
| 20260502005008 | 70 | 340 | 8.7 | 13.9 | 0.00 | 0.00 | 0.00 | 50 | 1013.3 |
| 20260502004513 | 70 | 328 | 9.6 | 13.9 | 0.00 | 0.00 | 0.00 | 50 | 1013.3 |
| 20260502004007 | 71 | 296 | 10.4 | 15.6 | 0.00 | 0.00 | 0.00 | 48 | 1013.3 |
| 20260502003510 | 71 | 359 | 8.7 | 15.6 | 0.00 | 0.00 | 0.00 | 47 | 1013.2 |
| 20260502003008 | 72 | 305 | 7.0 | 12.2 | 0.00 | 0.00 | 0.00 | 47 | 1013.2 |
| 20260502002507 | 72 | 327 | 6.1 | 13.0 | 0.00 | 0.00 | 0.00 | 46 | 1013.2 |
| 20260502002003 | 72 | 359 | 6.1 | 13.0 | 0.00 | 0.00 | 0.00 | 46 | 1013.3 |
| 20260502001503 | 72 | 347 | 7.0 | 11.3 | 0.00 | 0.00 | 0.00 | 47 | 1013.3 |
| 20260502001002 | 71 | 359 | 7.0 | 11.3 | 0.00 | 0.00 | 0.00 | 47 | 1013.3 |
| 20260502000501 | 71 | 308 | 7.8 | 12.2 | 0.00 | 0.00 | 0.00 | 46 | 1013.3 |
| 20260502000001 | 71 | 335 | 7.0 | 12.2 | 0.00 | 0.00 | 0.00 | 46 | 1013.3 |
| 20260501235501 | 72 | 323 | 7.0 | 11.3 | 0.00 | 0.00 | 0.00 | 46 | 1013.3 |
| 20260501235001 | 72 | 326 | 8.7 | 13.9 | 0.00 | 0.00 | 0.00 | 45 | 1013.3 |
| 20260501234502 | 72 | 310 | 8.7 | 13.9 | 0.00 | 0.00 | 0.00 | 44 | 1013.3 |
| 20260501234004 | 73 | 319 | 7.8 | 13.0 | 0.00 | 0.00 | 0.00 | 44 | 1013.3 |
| 20260501233737 | 73 | 347 | 6.1 | 12.2 | 0.00 | 0.00 | 0.00 | 43 | 1013.4 |
| 20260501232948 | 74 | 23 | 6.1 | 8.7 | 0.00 | 0.00 | 0.00 | 41 | 1013.4 |
| 20260501232443 | 74 | 329 | 6.1 | 11.3 | 0.00 | 0.00 | 0.00 | 40 | 1013.4 |
| 20260501231941 | 74 | 328 | 6.1 | 11.3 | 0.00 | 0.00 | 0.00 | 41 | 1013.4 |
| 20260501231438 | 74 | 321 | 5.2 | 10.4 | 0.00 | 0.00 | 0.00 | 42 | 1013.4 |
| 20260501230936 | 73 | 9 | 7.0 | 12.2 | 0.00 | 0.00 | 0.00 | 41 | 1013.4 |
| 20260501230430 | 73 | 349 | 6.1 | 12.2 | 0.00 | 0.00 | 0.00 | 41 | 1013.7 |
| 20260501230212 | 74 | 354 | 4.3 | 11.3 | 0.00 | 0.00 | 0.00 | 41 | 1013.7 |
| 20260501225429 | 73 | 341 | 6.1 | 10.4 | 0.00 | 0.00 | 0.00 | 42 | 1013.7 |
| 20260501224928 | 73 | 32 | 6.1 | 10.4 | 0.00 | 0.00 | 0.00 | 42 | 1013.9 |
| 20260501224429 | 73 | 344 | 5.2 | 10.4 | 0.00 | 0.00 | 0.00 | 44 | 1013.9 |
| 20260501223930 | 73 | 359 | 5.2 | 8.7 | 0.00 | 0.00 | 0.00 | 42 | 1013.9 |